Ely, MN

1:48 AM CDT on April 25, 2017 (GMT -0500)
Ely Municipal

Weather History for KELO - November, 2010

Change the Weather History Date:

Sunday, November 7, 2010

  Actual Average Record
Temperature  
Mean Temperature 43 °F -  
Max Temperature 62 °F 37 °F 62 °F (2010)
Min Temperature 24 °F 23 °F 8 °F (2003)
Degree Days  
Heating Degree Days 22    
Moisture  
Dew Point 27 °F    
Average Humidity 65    
Maximum Humidity 93    
Minimum Humidity 30    
Precipitation  
Precipitation 0.00 in - - ()
Sea Level Pressure  
Sea Level Pressure 29.96 in    
Wind  
Wind Speed 1 mph (SSE)    
Max Wind Speed 7 mph    
Max Gust Speed -    
Visibility 10 miles    
Events      
Averages and records for this station are not official NWS values.
T = Trace of Precipitation, MM = Missing Value Source: NWS Daily Summary

Daily Weather History Graph

Daily Weather History Graph

Search for Another Location

Airport or City:

Trip Planner

Search our weather history database for the weather conditions in past years. The results will help you decide how hot, cold, wet, or windy it might be!

Date:

Astronomy

Nov. 07, 2010 Rise Set
Actual Time 7:01 AM CST 4:40 PM CST
Civil Twilight 6:28 AM CST 5:13 PM CST
Nautical Twilight 5:51 AM CST 5:50 PM CST
Astronomical Twilight 5:14 AM CST 6:26 PM CST
Moon 8:59 AM CST (11/7) 5:26 PM CST (11/7)
Length of Visible Light 10h 45m
Length of Day
9h 39m
Waxing Crescent, 3% of the Moon is Illuminated
Nov 7
Waxing Crescent
Nov 13
First Quarter
Nov 21
Full
Nov 28
Last Quarter
Dec 5
New

Hourly Weather History & Observations

Time (CST) Temp. Windchill Dew Point Humidity Pressure Visibility Wind Dir Wind Speed Gust Speed Precip Events Conditions
12:13 AM 28.4 °F - 23.0 °F 80% 29.94 in 10.0 mi Calm Calm - N/A   Clear
12:33 AM 30.2 °F - 24.8 °F 80% 29.95 in 10.0 mi Calm Calm - N/A   Clear
12:53 AM 28.4 °F - 23.0 °F 80% 29.94 in 10.0 mi Calm Calm - N/A   Clear
1:13 AM 28.4 °F - 24.8 °F 86% 29.95 in 10.0 mi Calm Calm - N/A   Clear
1:33 AM 28.4 °F - 24.8 °F 86% 29.95 in 10.0 mi Calm Calm - N/A   Clear
1:53 AM 28.4 °F - 24.8 °F 86% 29.95 in 10.0 mi Calm Calm - N/A   Clear
1:13 AM 28.4 °F - 23.0 °F 80% 29.95 in 10.0 mi Calm Calm - N/A   Clear
1:33 AM 26.6 °F - 23.0 °F 86% 29.95 in 10.0 mi Calm Calm - N/A   Clear
1:53 AM 26.6 °F - 23.0 °F 86% 29.95 in 10.0 mi Calm Calm - N/A   Clear
2:13 AM 26.6 °F - 23.0 °F 86% 29.95 in 10.0 mi Calm Calm - N/A   Clear
2:33 AM 26.6 °F - 23.0 °F 86% 29.95 in 10.0 mi Calm Calm - N/A   Clear
2:53 AM 26.6 °F - 23.0 °F 86% 29.95 in 10.0 mi Calm Calm - N/A   Clear
3:13 AM 26.6 °F - 23.0 °F 86% 29.96 in 10.0 mi Calm Calm - N/A   Clear
3:33 AM 26.6 °F - 23.0 °F 86% 29.96 in 10.0 mi Calm Calm - N/A   Clear
3:53 AM 24.8 °F - 21.2 °F 86% 29.96 in 10.0 mi Calm Calm - N/A   Clear
4:13 AM 24.8 °F - 21.2 °F 86% 29.97 in 10.0 mi Calm Calm - N/A   Clear
4:33 AM 24.8 °F - 21.2 °F 86% 29.98 in 10.0 mi Calm Calm - N/A   Clear
4:53 AM 24.8 °F - 21.2 °F 86% 29.98 in 10.0 mi Calm Calm - N/A   Clear
5:13 AM 26.6 °F - 23.0 °F 86% 29.97 in 10.0 mi Calm Calm - N/A   Clear
5:33 AM 24.8 °F - 21.2 °F 86% 29.98 in 10.0 mi Calm Calm - N/A   Clear
5:53 AM 24.8 °F - 21.2 °F 86% 29.98 in 10.0 mi Calm Calm - N/A   Clear
6:13 AM 24.8 °F - 21.2 °F 86% 29.98 in 10.0 mi Calm Calm - N/A   Clear
6:33 AM 24.8 °F - 21.2 °F 86% 29.98 in 10.0 mi Calm Calm - N/A   Clear
6:53 AM 24.8 °F - 21.2 °F 86% 29.98 in 10.0 mi Calm Calm - N/A   Clear
7:13 AM 24.8 °F - 21.2 °F 86% 29.98 in 10.0 mi Calm Calm - N/A   Clear
7:33 AM 24.8 °F - 23.0 °F 93% 29.99 in 10.0 mi Calm Calm - N/A   Clear
7:53 AM 26.6 °F - 24.8 °F 93% 29.99 in 10.0 mi Calm Calm - N/A   Clear
8:13 AM 28.4 °F - 26.6 °F 93% 29.99 in 10.0 mi Calm Calm - N/A   Scattered Clouds
8:33 AM 28.4 °F - 26.6 °F 93% 30.00 in 10.0 mi Calm Calm - N/A   Scattered Clouds
8:53 AM 30.2 °F - 26.6 °F 86% 30.00 in 10.0 mi Calm Calm - N/A   Scattered Clouds
9:13 AM 33.8 °F - 28.4 °F 81% 30.00 in 10.0 mi Calm Calm - N/A   Scattered Clouds
9:33 AM 37.4 °F - 28.4 °F 70% 30.01 in 10.0 mi Calm Calm - N/A   Clear
9:53 AM 39.2 °F - 28.4 °F 65% 30.01 in 10.0 mi Calm Calm - N/A   Scattered Clouds
10:13 AM 42.8 °F - 30.2 °F 61% 30.00 in 10.0 mi Calm Calm - N/A   Scattered Clouds
10:33 AM 46.4 °F - 30.2 °F 53% 29.99 in 10.0 mi Calm Calm - N/A   Scattered Clouds
10:53 AM 48.2 °F - 30.2 °F 50% 29.98 in 10.0 mi Calm Calm - N/A   Clear
11:13 AM 50.0 °F - 30.2 °F 47% 29.97 in 10.0 mi Calm Calm - N/A   Clear
11:33 AM 53.6 °F - 32.0 °F 44% 29.96 in 10.0 mi ESE 3.5 mph - N/A   Clear
11:53 AM 53.6 °F - 30.2 °F 41% 29.96 in 10.0 mi SE 3.5 mph - N/A   Clear
12:13 PM 57.2 °F - 30.2 °F 36% 29.95 in 10.0 mi SSE 4.6 mph - N/A   Clear
12:33 PM 57.2 °F - 30.2 °F 36% 29.95 in 10.0 mi SSE 3.5 mph - N/A   Clear
12:53 PM 59.0 °F - 30.2 °F 34% 29.94 in 10.0 mi SE 5.8 mph - N/A   Clear
1:13 PM 59.0 °F - 30.2 °F 34% 29.94 in 10.0 mi SSE 6.9 mph - N/A   Clear
1:33 PM 60.8 °F - 30.2 °F 31% 29.93 in 10.0 mi SE 3.5 mph - N/A   Clear
1:53 PM 60.8 °F - 30.2 °F 31% 29.93 in 10.0 mi South 4.6 mph - N/A   Clear
2:13 PM 60.8 °F - 30.2 °F 31% 29.92 in 10.0 mi South 3.5 mph - N/A   Clear
2:33 PM 60.8 °F - 30.2 °F 31% 29.92 in 10.0 mi Calm Calm - N/A   Clear
2:53 PM 62.6 °F - 30.2 °F 30% 29.92 in 10.0 mi Calm Calm - N/A   Clear
3:13 PM 62.6 °F - 30.2 °F 30% 29.92 in 10.0 mi Calm Calm - N/A   Clear
3:33 PM 60.8 °F - 30.2 °F 31% 29.92 in 10.0 mi South 4.6 mph - N/A   Clear
3:53 PM 60.8 °F - 30.2 °F 31% 29.92 in 10.0 mi SSE 4.6 mph - N/A   Clear
4:13 PM 59.0 °F - 32.0 °F 36% 29.92 in 10.0 mi SSE 4.6 mph - N/A   Clear
4:33 PM 57.2 °F - 32.0 °F 38% 29.92 in 10.0 mi SSE 4.6 mph - N/A   Clear
4:53 PM 55.4 °F - 30.2 °F 38% 29.92 in 10.0 mi South 5.8 mph - N/A   Clear
5:13 PM 53.6 °F - 30.2 °F 41% 29.92 in 10.0 mi SSE 4.6 mph - N/A   Clear
5:33 PM 50.0 °F - 32.0 °F 50% 29.92 in 10.0 mi SSE 6.9 mph - N/A   Clear
5:53 PM 50.0 °F - 32.0 °F 50% 29.93 in 10.0 mi SSE 4.6 mph - N/A   Clear
6:13 PM 48.2 °F - 30.2 °F 50% 29.92 in 10.0 mi SSE 6.9 mph - N/A   Clear
6:33 PM 46.4 °F - 30.2 °F 53% 29.92 in 10.0 mi Calm Calm - N/A   Clear
6:53 PM 44.6 °F - 30.2 °F 57% 29.93 in 10.0 mi Calm Calm - N/A   Clear
7:13 PM 42.8 °F - 30.2 °F 61% 29.92 in 10.0 mi Calm Calm - N/A   Clear
7:33 PM 41.0 °F 39.0 °F 30.2 °F 65% 29.92 in 10.0 mi SSE 3.5 mph - N/A   Clear
7:53 PM 41.0 °F - 30.2 °F 65% 29.92 in 10.0 mi Calm Calm - N/A   Clear
8:13 PM 41.0 °F - 30.2 °F 65% 29.92 in 4.0 mi Calm Calm - N/A   Haze
8:33 PM 39.2 °F - 28.4 °F 65% 29.92 in 10.0 mi Calm Calm - N/A   Clear
8:53 PM 37.4 °F - 28.4 °F 70% 29.92 in 10.0 mi Calm Calm - N/A   Clear
9:13 PM 35.6 °F - 28.4 °F 75% 29.92 in 10.0 mi Calm Calm - N/A   Clear
9:33 PM 35.6 °F - 28.4 °F 75% 29.92 in 10.0 mi Calm Calm - N/A   Clear
9:53 PM 35.6 °F - 28.4 °F 75% 29.92 in 10.0 mi Calm Calm - N/A   Clear
10:13 PM 33.8 °F - 26.6 °F 75% 29.92 in 10.0 mi Calm Calm - N/A   Clear
10:33 PM 33.8 °F - 26.6 °F 75% 29.92 in 10.0 mi Calm Calm - N/A   Clear
10:53 PM 33.8 °F - 26.6 °F 75% 29.91 in 10.0 mi Calm Calm - N/A   Clear